EW0362 Weather Reports


time (UTC)temp
F
wind
direction
speed
knots
gust
knots
rain 1hr
in
rain 24hr
in
rain mn
in
humidity
%
barometer
mb
20260901154704 64 96 0.0 0.0 0.00 0.27 0.27 96 1017.4
20260901153204 63 99 0.0 0.0 0.00 0.27 0.27 96 1017.3
20260901152704 63 99 0.0 0.0 0.00 0.27 0.27 96 1017.2
20260901152204 63 99 0.0 0.0 0.00 0.27 0.27 96 1017.4
20260901151204 63 48 0.0 0.0 0.01 0.27 0.27 96 1017.5
20260901150204 63 49 0.0 0.0 0.01 0.27 0.27 96 1017.5
20260901143705 63 36 0.0 0.0 0.02 0.27 0.27 96 1017.3
20260901142705 63 36 0.0 0.0 0.03 0.27 0.27 96 1017.3
20260901142205 63 36 0.0 0.0 0.03 0.27 0.27 96 1017.4
20260901140204 63 36 0.0 0.0 0.06 0.26 0.26 95 1017.1
20260901135204 63 35 0.0 0.0 0.09 0.26 0.26 95 1017.1
20260901134204 63 115 0.0 0.0 0.13 0.25 0.25 95 1017.3
20260901133704 63 115 0.0 0.0 0.15 0.25 0.25 95 1017.4
20260901133204 63 115 0.0 0.0 0.17 0.25 0.25 95 1017.5
20260901132704 64 115 0.0 0.0 0.17 0.24 0.24 95 1017.6
20260901130704 64 114 0.0 0.0 0.19 0.20 0.20 95 1017.8
20260901130204 64 131 0.0 0.0 0.20 0.20 0.20 96 1017.8
20260901125705 64 124 0.0 0.0 0.19 0.19 0.19 95 1017.8
20260901125204 64 124 0.0 0.9 0.17 0.17 0.17 95 1017.8
20260901124704 65 271 0.0 0.0 0.15 0.15 0.15 95 1017.8
20260901123704 65 267 0.0 0.0 0.10 0.10 0.10 95 1017.9
20260901123204 65 272 0.0 0.0 0.08 0.08 0.08 95 1017.9
20260901122204 65 0 0.0 0.9 0.04 0.04 0.04 95 1018.0
20260901115704 65 5 0.0 0.0 0.00 0.00 0.00 95 1017.8
20260901114704 65 5 0.0 0.0 0.00 0.00 0.00 95 1017.7
20260901113705 65 5 0.0 0.0 0.00 0.00 0.00 95 1017.6
20260901113204 65 5 0.0 0.0 0.00 0.00 0.00 95 1017.6
20260901112204 65 5 0.0 0.0 0.00 0.00 0.00 94 1017.5
20260901111704 65 5 0.0 0.0 0.00 0.00 0.00 94 1017.5
20260901111204 65 5 0.0 0.0 0.00 0.00 0.00 94 1017.5
20260901110703 65 5 0.0 0.0 0.00 0.00 0.00 94 1017.5
20260901110204 65 5 0.0 0.0 0.00 0.00 0.00 94 1017.5
20260901105705 65 5 0.0 0.0 0.00 0.00 0.00 94 1017.3
20260901105204 65 5 0.0 0.0 0.00 0.00 0.00 94 1017.3
20260901103704 65 5 0.0 0.0 0.00 0.00 0.00 94 1017.1
20260901103204 65 5 0.0 0.0 0.00 0.00 0.00 94 1017.1
20260901102704 65 5 0.0 0.0 0.00 0.00 0.00 94 1017.0
20260901101704 64 5 0.0 0.0 0.00 0.00 0.00 94 1016.9
20260901101204 64 5 0.0 0.0 0.00 0.00 0.00 94 1016.8
20260901100704 64 5 0.0 0.0 0.00 0.00 0.00 94 1016.7
20260901095704 64 5 0.0 0.0 0.00 0.00 0.00 94 1016.6
20260901095204 64 5 0.0 0.0 0.00 0.00 0.00 94 1016.6
20260901094704 64 5 0.0 0.0 0.00 0.00 0.00 94 1016.6
20260901093704 64 5 0.0 0.0 0.00 0.00 0.00 94 1016.5
20260901092704 64 5 0.0 0.0 0.00 0.00 0.00 94 1016.5
20260901092204 64 5 0.0 0.0 0.00 0.00 0.00 94 1016.7
20260901091204 64 5 0.0 0.0 0.00 0.00 0.00 94 1016.6
20260901090704 64 5 0.0 0.0 0.00 0.00 0.00 94 1016.6
20260901083204 64 5 0.0 0.0 0.00 0.00 0.00 94 1016.6
20260901081704 64 5 0.0 0.0 0.00 0.00 0.00 94 1016.7
20260901080704 64 5 0.0 0.0 0.00 0.00 0.00 94 1016.6
20260901073704 64 5 0.0 0.0 0.00 0.00 0.00 93 1016.9
20260901073204 64 5 0.0 0.0 0.00 0.00 0.00 93 1017.0
20260901070704 64 5 0.0 0.0 0.00 0.00 0.00 93 1017.0
20260901070205 64 5 0.0 0.0 0.00 0.00 0.00 93 1017.1
20260901065204 64 5 0.0 0.0 0.00 0.00 0.00 93 1017.2
20260901064704 64 5 0.0 0.0 0.00 0.00 0.00 93 1017.2
20260901064204 64 5 0.0 0.0 0.00 0.00 0.00 93 1017.3
20260901063204 63 5 0.0 0.0 0.00 0.00 0.00 93 1017.2
20260901062704 63 5 0.0 0.0 0.00 0.00 0.00 93 1017.2
20260901062204 63 5 0.0 0.0 0.00 0.00 0.00 93 1017.3
20260901061704 63 5 0.0 0.0 0.00 0.00 0.00 93 1017.2
20260901055703 63 5 0.0 0.0 0.00 0.00 0.00 93 1017.3
20260901053704 63 5 0.0 0.0 0.00 0.00 0.00 92 1017.3
20260901053204 63 5 0.0 0.0 0.00 0.00 0.00 92 1017.4
20260901052703 63 5 0.0 0.0 0.00 0.00 0.00 92 1017.4
20260901052205 63 5 0.0 0.0 0.00 0.00 0.00 91 1017.4
20260901051204 63 5 0.0 0.0 0.00 0.00 0.00 91 1017.4
20260901050204 64 5 0.0 0.0 0.00 0.00 0.00 91 1017.3
20260901045204 64 5 0.0 0.0 0.00 0.00 0.00 90 1017.4
20260901044704 64 5 0.0 0.0 0.00 0.00 0.00 90 1017.5
20260901044203 64 5 0.0 0.0 0.00 0.00 0.00 90 1017.5
20260901042704 64 5 0.0 0.0 0.00 0.00 0.00 90 1017.3
20260901041704 64 5 0.0 0.0 0.00 0.00 0.00 90 1017.4
20260901040204 65 5 0.0 0.0 0.00 0.00 0.00 90 1017.3
20260901034703 65 5 0.0 0.0 0.00 0.00 0.00 90 1017.4
20260901034204 65 5 0.0 0.0 0.00 0.00 0.00 90 1017.4
20260901033703 65 5 0.0 0.0 0.00 0.00 0.00 90 1017.4
20260901033203 65 5 0.0 0.0 0.00 0.00 0.00 90 1017.4
20260901032704 65 5 0.0 0.0 0.00 0.00 0.00 90 1017.4
20260901031703 65 5 0.0 0.0 0.00 0.00 0.00 90 1017.4
20260901025704 65 5 0.0 0.0 0.00 0.00 0.00 90 1017.5
20260901024703 65 5 0.0 0.0 0.00 0.00 0.00 90 1017.4
20260901023203 65 5 0.0 0.0 0.00 0.00 0.00 90 1017.2
20260901022704 65 5 0.0 0.0 0.00 0.00 0.00 90 1017.3
20260901021204 65 5 0.0 0.0 0.00 0.00 0.00 89 1017.3
20260901020704 65 5 0.0 0.0 0.00 0.00 0.00 89 1017.3
20260901015703 65 5 0.0 0.0 0.00 0.00 0.00 89 1017.3
20260901014704 66 5 0.0 0.0 0.00 0.00 0.00 88 1017.4
20260901014204 66 5 0.0 0.0 0.00 0.00 0.00 89 1017.4
20260901013704 66 5 0.0 0.0 0.00 0.00 0.00 88 1017.4
20260901013204 66 5 0.0 0.0 0.00 0.00 0.00 88 1017.5
20260901011704 66 5 0.0 0.0 0.00 0.00 0.00 87 1017.5
20260901011203 66 5 0.0 0.0 0.00 0.00 0.00 86 1017.5
20260901010704 66 5 0.0 0.0 0.00 0.00 0.00 86 1017.5
20260901005703 67 5 0.0 0.0 0.00 0.00 0.00 86 1017.6
20260901005203 67 5 0.0 0.0 0.00 0.00 0.00 87 1017.6
20260901004203 67 5 0.0 0.0 0.00 0.00 0.00 86 1017.5
20260901003703 68 5 0.0 0.0 0.00 0.00 0.00 85 1017.4
20260901003204 68 5 0.0 0.0 0.00 0.00 0.00 83 1017.5
20260901001205 69 5 0.0 0.0 0.00 0.00 0.00 82 1017.2
20260901000705 69 5 0.0 0.0 0.00 0.00 0.00 83 1017.1
20260831232705 71 5 0.0 0.0 0.00 0.00 0.00 80 1017.3
20260831232204 71 5 0.0 0.0 0.00 0.00 0.00 79 1017.3
20260831230205 72 5 0.0 0.0 0.00 0.00 0.00 80 1017.4
20260831223705 73 5 0.0 0.0 0.00 0.00 0.00 76 1017.6
20260831222205 73 5 0.0 0.0 0.00 0.00 0.00 74 1017.5
20260831221704 73 5 0.0 0.9 0.00 0.00 0.00 74 1017.6
20260831221205 74 5 0.0 0.9 0.00 0.00 0.00 73 1017.6
20260831220704 74 5 0.0 0.9 0.00 0.00 0.00 73 1017.5
20260831220205 74 247 0.0 0.0 0.00 0.00 0.00 73 1017.5
20260831215705 74 247 0.0 0.9 0.00 0.00 0.00 71 1017.4
20260831215205 74 247 0.0 0.0 0.00 0.00 0.00 72 1017.4
20260831214205 74 247 0.0 0.9 0.00 0.00 0.00 70 1017.4
20260831213204 74 247 0.0 0.0 0.00 0.00 0.00 70 1017.4
20260831212205 75 247 0.0 0.0 0.00 0.00 0.00 71 1017.4
20260831211704 75 247 0.0 0.0 0.00 0.00 0.00 71 1017.5
20260831210704 75 247 0.0 0.9 0.00 0.00 0.00 69 1017.7
20260831210204 75 244 0.0 2.6 0.00 0.00 0.00 71 1017.7
20260831205704 75 236 0.0 1.7 0.00 0.00 0.00 69 1017.7
20260831202704 76 232 0.9 1.7 0.00 0.00 0.00 69 1017.7
20260831201705 76 223 0.0 1.7 0.00 0.00 0.00 70 1017.7
20260831200705 76 262 0.0 2.6 0.00 0.00 0.00 64 1017.7
20260831194705 76 56 0.0 2.6 0.00 0.00 0.00 63 1017.9
20260831193705 76 289 0.9 2.6 0.00 0.00 0.00 64 1017.9
20260831193205 76 51 0.9 2.6 0.00 0.00 0.00 61 1017.8
20260831192704 76 49 0.9 2.6 0.00 0.00 0.00 57 1017.9
20260831192205 76 335 0.9 1.7 0.00 0.00 0.00 66 1017.9
20260831191704 76 5 0.9 5.2 0.00 0.00 0.00 60 1017.9
20260831190704 75 214 0.0 1.7 0.00 0.00 0.00 64 1018.3
20260831190205 75 217 0.0 0.9 0.00 0.00 0.00 66 1018.3
20260831185705 75 217 0.9 1.7 0.00 0.00 0.00 63 1018.3
20260831184705 75 73 0.0 0.9 0.00 0.00 0.00 61 1018.4
20260831183705 75 67 0.9 2.6 0.00 0.00 0.00 61 1018.5
20260831183205 75 242 0.0 0.9 0.00 0.00 0.00 64 1018.6
20260831181204 75 244 0.0 0.9 0.00 0.00 0.00 63 1018.8
20260831180704 75 249 0.0 0.9 0.00 0.00 0.00 65 1018.8
20260831175704 75 255 0.0 1.7 0.00 0.00 0.00 62 1018.7
20260831174704 75 254 0.9 2.6 0.00 0.00 0.00 64 1018.9
20260831173204 75 31 0.9 2.6 0.00 0.00 0.00 57 1018.9
20260831172705 74 310 0.9 6.1 0.00 0.00 0.00 60 1019.0
20260831171705 74 86 0.0 1.7 0.00 0.00 0.00 59 1019.1
20260831170205 74 359 0.0 1.7 0.00 0.00 0.00 58 1019.2
20260831165705 73 101 0.0 2.6 0.00 0.00 0.00 59 1019.3
20260831165204 73 64 1.7 2.6 0.00 0.00 0.00 58 1019.4
20260831164205 73 284 0.0 2.6 0.00 0.00 0.00 68 1019.6
20260831161704 72 276 0.9 5.2 0.00 0.00 0.00 62 1019.8
20260831160705 72 286 0.9 2.6 0.00 0.00 0.00 63 1019.8
20260831160205 72 253 0.0 2.6 0.00 0.00 0.00 63 1019.8
20260831155704 71 278 1.7 2.6 0.00 0.00 0.00 63 1019.9
20260831155205 71 259 0.9 1.7 0.00 0.00 0.00 66 1019.9